This is the latest recevied weather packets stored in our database for station/object DM4XI-13. If no packets are shown the sender has not sent any weather packets the latest 10 day(s).
| Time | Temp. | Humidity | Pressure | Rain* | Wind** | Luminosity | Snow |
|---|---|---|---|---|---|---|---|
| 1777707142 | 17.22° C | 50% | 1021.5 hPa | 0 mm | 0 m/s | 353 W/m² | - |
| 1777707081 | 17.22° C | 48% | 1021.8 hPa | 0 mm | 0.45 m/s, 156° | 351 W/m² | - |
| 1777707019 | 17.22° C | 49% | 1021.6 hPa | 0 mm | 0 m/s | 349 W/m² | - |
| 1777706959 | 17.22° C | 49% | 1021.8 hPa | 0 mm | 0 m/s | 348 W/m² | - |
| 1777706898 | 17.22° C | 48% | 1021.6 hPa | 0 mm | 0.45 m/s, 181° | 345 W/m² | - |
| 1777706837 | 16.67° C | 48% | 1021.8 hPa | 0 mm | 0.45 m/s, 180° | 343 W/m² | - |
| 1777706776 | 16.67° C | 51% | 1021.7 hPa | 0 mm | 0 m/s | 340 W/m² | - |
| 1777706714 | 16.67° C | 50% | 1021.6 hPa | 0 mm | 0 m/s | 339 W/m² | - |
| 1777706654 | 16.67° C | 50% | 1021.7 hPa | 0 mm | 0 m/s | 334 W/m² | - |
| 1777706593 | 16.11° C | 50% | 1021.8 hPa | 0 mm | 0.45 m/s, 110° | 334 W/m² | - |
| 1777706531 | 16.11° C | 51% | 1021.7 hPa | 0 mm | 0 m/s | 310 W/m² | - |
| 1777706471 | 16.11° C | 51% | 1021.8 hPa | 0 mm | 0 m/s | 328 W/m² | - |
| 1777706410 | 16.11° C | 51% | 1021.7 hPa | 0 mm | 0.45 m/s, 159° | 309 W/m² | - |
| 1777706349 | 16.11° C | 52% | 1021.7 hPa | 0 mm | 0 m/s | 324 W/m² | - |
| 1777706288 | 15.56° C | 50% | 1021.9 hPa | 0 mm | 0 m/s | 319 W/m² | - |
| 1777706226 | 16.11° C | 50% | 1021.7 hPa | 0 mm | 0 m/s | 291 W/m² | - |
| 1777706166 | 16.11° C | 51% | 1021.7 hPa | 0 mm | 0.45 m/s, 100° | 319 W/m² | - |
| 1777706104 | 16.11° C | 51% | 1021.7 hPa | 0 mm | 0.45 m/s, 156° | 63 W/m² | - |
| 1777706044 | 16.11° C | 50% | 1021.6 hPa | 0 mm | 0.45 m/s, 132° | 314 W/m² | - |
| 1777705983 | 16.11° C | 50% | 1021.9 hPa | 0 mm | 0.45 m/s, 179° | 310 W/m² | - |
| 1777705921 | 16.11° C | 50% | 1021.8 hPa | 0 mm | 0.45 m/s, 149° | 293 W/m² | - |
| 1777705861 | 15.56° C | 52% | 1021.8 hPa | 0 mm | 0.45 m/s, 157° | 54 W/m² | - |
| 1777705799 | 15.56° C | 52% | 1021.8 hPa | 0 mm | 0 m/s | 303 W/m² | - |
| 1777705739 | 15.56° C | 51% | 1021.6 hPa | 0 mm | 0 m/s | 301 W/m² | - |
| 1777705677 | 15.56° C | 50% | 1021.7 hPa | 0 mm | 0.45 m/s, 134° | 299 W/m² | - |
* Rain latest hour (hover to see other rain measurements)
** Current wind speed in m/s (hover to see current wind gust speed)